Change the Weather History Date:

Sunday, September 29, 2013

  Actual Average (KORF) Record (KORF)
Temperature  
Mean Temperature 62 °F 68 °F  
Max Temperature 73 °F 75 °F 93 °F (1973)
Min Temperature 50 °F 61 °F 49 °F (1962)
Degree Days  
Heating Degree Days 3 1  
Month to date heating degree days 7  
Since 1 July heating degree days 7  
Cooling Degree Days 0 4  
Month to date cooling degree days 226  
Year to date cooling degree days 1561  
Growing Degree Days 12 (Base 50)    
Moisture  
Dew Point 57 °F    
Average Humidity 83    
Maximum Humidity 100    
Minimum Humidity 53    
Precipitation  
Precipitation 0.00 in 0.15 in 2.33 in (1946)
Month to date precipitation 4.63  
Year to date precipitation 36.57  
Snow  
Snow 0.00 in 0.00 in 0.00 in (2002)
Month to date snowfall 0.0  
Since 1 July snowfall 0.0  
Snow Depth -    
Sea Level Pressure  
Sea Level Pressure 30.09 in    
Wind  
Wind Speed 2 mph (NE)    
Max Wind Speed 15 mph    
Max Gust Speed 20 mph    
Visibility 10 miles    
Events Rain    
T = Trace of Precipitation, MM = Missing Value Source: NWS Daily Summary

Daily Weather History Graph

Daily Weather History Graph

Search for Another Location

Airport or City:

Trip Planner

Search our weather history database for the weather conditions in past years. The results will help you decide how hot, cold, wet, or windy it might be!

Date:

Astronomy

Sep. 29, 2013 Rise Set
Actual Time 6:59 AM EDT 6:51 PM EDT
Civil Twilight 6:33 AM EDT 7:17 PM EDT
Nautical Twilight 6:03 AM EDT 7:47 PM EDT
Astronomical Twilight 5:33 AM EDT 8:17 PM EDT
Moon 1:45 AM EDT (9/29) 3:39 PM EDT (9/29)
Length of Visible Light 12h 43m
Length of Day
11h 52m
Waning Crescent, 27% of the Moon is Illuminated
Sep 29
Waning Crescent
Oct 4
New
Oct 11
First Quarter
Oct 18
Full
Oct 26
Last Quarter

Hourly Weather History & Observations

Time (EDT) Temp. Dew Point Humidity Pressure Visibility Wind Dir Wind Speed Gust Speed Precip Events Conditions
12:15 AM 57.2 °F 55.4 °F 94% 30.16 in 10.0 mi Calm Calm - N/A   Clear
12:35 AM 57.2 °F 55.4 °F 94% 30.16 in 10.0 mi Calm Calm - N/A   Scattered Clouds
12:55 AM 55.4 °F 53.6 °F 94% 30.16 in 10.0 mi Calm Calm - N/A   Scattered Clouds
1:15 AM 55.4 °F 53.6 °F 94% 30.15 in 10.0 mi Calm Calm - N/A   Mostly Cloudy
1:35 AM 53.6 °F 53.6 °F 100% 30.14 in 10.0 mi Calm Calm - N/A   Scattered Clouds
1:55 AM 55.4 °F 53.6 °F 94% 30.14 in 10.0 mi Calm Calm - N/A   Scattered Clouds
2:15 AM 53.6 °F 53.6 °F 100% 30.14 in 10.0 mi Calm Calm - N/A   Scattered Clouds
2:35 AM 55.4 °F 55.4 °F 100% 30.13 in 10.0 mi Calm Calm - N/A   Mostly Cloudy
2:55 AM 55.4 °F 53.6 °F 94% 30.12 in 10.0 mi Calm Calm - N/A   Overcast
3:15 AM 57.2 °F 57.2 °F 100% 30.12 in 10.0 mi Calm Calm - N/A   Overcast
3:35 AM 60.8 °F 57.2 °F 88% 30.11 in 10.0 mi Calm Calm - N/A   Mostly Cloudy
3:55 AM 57.2 °F 55.4 °F 94% 30.11 in 10.0 mi Calm Calm - N/A   Overcast
4:15 AM 59.0 °F 57.2 °F 94% 30.11 in 10.0 mi Calm Calm - N/A   Mostly Cloudy
4:35 AM 57.2 °F 55.4 °F 94% 30.11 in 10.0 mi Calm Calm - N/A   Mostly Cloudy
4:55 AM 59.0 °F 57.2 °F 94% 30.11 in 10.0 mi Calm Calm - N/A   Overcast
5:15 AM 60.8 °F 59.0 °F 94% 30.11 in 10.0 mi Calm Calm - N/A   Overcast
5:35 AM 60.8 °F 59.0 °F 94% 30.11 in 10.0 mi Calm Calm - N/A   Overcast
5:55 AM 60.8 °F 60.8 °F 100% 30.11 in 10.0 mi Calm Calm - N/A   Mostly Cloudy
6:15 AM 60.8 °F 60.8 °F 100% 30.11 in 10.0 mi Calm Calm - N/A   Mostly Cloudy
6:35 AM 60.8 °F 59.0 °F 94% 30.11 in 10.0 mi Calm Calm - N/A   Scattered Clouds
6:55 AM 60.8 °F 60.8 °F 100% 30.11 in 10.0 mi Calm Calm - N/A   Mostly Cloudy
7:15 AM 62.6 °F 60.8 °F 94% 30.11 in 10.0 mi Calm Calm - N/A   Overcast
7:35 AM 60.8 °F 59.0 °F 94% 30.11 in 10.0 mi Calm Calm - N/A   Overcast
7:55 AM 60.8 °F 60.8 °F 100% 30.11 in 10.0 mi Calm Calm - N/A   Overcast
8:15 AM 62.6 °F 62.6 °F 100% 30.11 in 10.0 mi Calm Calm - N/A   Overcast
8:35 AM 64.4 °F 62.6 °F 94% 30.11 in 10.0 mi Calm Calm - N/A   Overcast
8:55 AM 66.2 °F 62.6 °F 88% 30.11 in 10.0 mi Calm Calm - N/A   Overcast
9:15 AM 66.2 °F 62.6 °F 88% 30.11 in 10.0 mi Calm Calm - N/A   Overcast
9:35 AM 68.0 °F 62.6 °F 83% 30.11 in 10.0 mi NNW 3.5 mph - N/A   Overcast
9:55 AM 69.8 °F 62.6 °F 78% 30.11 in 10.0 mi NNE 9.2 mph - N/A   Overcast
10:15 AM 69.8 °F 62.6 °F 78% 30.11 in 10.0 mi NNE 9.2 mph - N/A   Overcast
10:35 AM 69.8 °F 62.6 °F 78% 30.11 in 10.0 mi NNE 5.8 mph - N/A   Overcast
10:55 AM 69.8 °F 62.6 °F 78% 30.11 in 10.0 mi NNE 5.8 mph - N/A   Overcast
11:15 AM 71.6 °F 62.6 °F 73% 30.11 in 10.0 mi NNE 5.8 mph - N/A   Overcast
11:35 AM 69.8 °F 62.6 °F 78% 30.10 in 7.0 mi Calm Calm - N/A Rain Rain
11:55 AM 71.6 °F 62.6 °F 73% 30.10 in 10.0 mi Calm Calm - N/A   Mostly Cloudy
12:15 PM 71.6 °F 62.6 °F 73% 30.10 in 10.0 mi Calm Calm - N/A   Mostly Cloudy
12:35 PM 69.8 °F 60.8 °F 73% 30.10 in 10.0 mi Calm Calm - N/A   Overcast
12:55 PM 71.6 °F 60.8 °F 69% 30.10 in 10.0 mi NE 4.6 mph - N/A   Overcast
1:15 PM 71.6 °F 60.8 °F 69% 30.09 in 10.0 mi Calm Calm - N/A   Overcast
1:35 PM 71.6 °F 60.8 °F 69% 30.08 in 10.0 mi Calm Calm - N/A   Overcast
1:55 PM 73.4 °F 59.0 °F 61% 30.07 in 10.0 mi ENE 13.8 mph 17.3 mph N/A   Overcast
2:15 PM 71.6 °F 57.2 °F 60% 30.07 in 10.0 mi NE 15.0 mph 19.6 mph N/A   Overcast
2:35 PM 71.6 °F 57.2 °F 60% 30.06 in 10.0 mi NE 11.5 mph 16.1 mph N/A   Overcast
2:55 PM 71.6 °F 57.2 °F 60% 30.06 in 10.0 mi NNE 4.6 mph 9.2 mph N/A   Overcast
3:15 PM 71.6 °F 55.4 °F 57% 30.06 in 10.0 mi NNE 8.1 mph - N/A   Overcast
3:35 PM 73.4 °F 57.2 °F 57% 30.06 in 10.0 mi ENE 11.5 mph - N/A   Scattered Clouds
3:55 PM 73.4 °F 55.4 °F 53% 30.05 in 10.0 mi NE 13.8 mph - N/A   Clear
4:15 PM 71.6 °F 55.4 °F 57% 30.05 in 10.0 mi ENE 11.5 mph 19.6 mph N/A   Scattered Clouds
4:35 PM 71.6 °F 55.4 °F 57% 30.05 in 10.0 mi NNE 9.2 mph - N/A   Scattered Clouds
4:55 PM 71.6 °F 55.4 °F 57% 30.05 in 10.0 mi NE 10.4 mph - N/A   Mostly Cloudy
5:15 PM 69.8 °F 55.4 °F 60% 30.05 in 10.0 mi NE 10.4 mph - N/A   Overcast
5:35 PM 69.8 °F 55.4 °F 60% 30.05 in 10.0 mi ENE 9.2 mph - N/A   Overcast
5:55 PM 69.8 °F 55.4 °F 60% 30.06 in 10.0 mi ENE 8.1 mph - N/A   Mostly Cloudy
6:15 PM 68.0 °F 57.2 °F 68% 30.06 in 10.0 mi Calm Calm - N/A   Scattered Clouds
6:35 PM 66.2 °F 55.4 °F 68% 30.05 in 10.0 mi NE 6.9 mph - N/A   Clear
6:55 PM 64.4 °F 55.4 °F 73% 30.06 in 10.0 mi NE 4.6 mph - N/A   Clear
7:15 PM 64.4 °F 57.2 °F 77% 30.06 in 10.0 mi Calm Calm - N/A   Clear
7:35 PM 64.4 °F 55.4 °F 73% 30.06 in 10.0 mi Calm Calm - N/A   Clear
7:55 PM 60.8 °F 55.4 °F 82% 30.06 in 10.0 mi Calm Calm - N/A   Clear
8:15 PM 57.2 °F 53.6 °F 88% 30.06 in 10.0 mi Calm Calm - N/A   Clear
8:35 PM 57.2 °F 53.6 °F 88% 30.07 in 10.0 mi Calm Calm - N/A   Clear
8:55 PM 57.2 °F 55.4 °F 94% 30.07 in 10.0 mi Calm Calm - N/A   Clear
9:15 PM 53.6 °F 50.0 °F 88% 30.07 in 10.0 mi Calm Calm - N/A   Clear
9:35 PM 53.6 °F 51.8 °F 94% 30.07 in 10.0 mi Calm Calm - N/A   Clear
9:55 PM 55.4 °F 53.6 °F 94% 30.06 in 10.0 mi Calm Calm - N/A   Clear
10:15 PM 51.8 °F 48.2 °F 88% 30.06 in 10.0 mi Calm Calm - N/A   Clear
10:35 PM 51.8 °F 51.8 °F 100% 30.05 in 10.0 mi Calm Calm - N/A   Clear
10:55 PM 53.6 °F 51.8 °F 94% 30.05 in 10.0 mi Calm Calm - N/A   Clear
11:15 PM 51.8 °F 48.2 °F 88% 30.05 in 10.0 mi Calm Calm - N/A   Clear
11:35 PM 51.8 °F 50.0 °F 94% 30.05 in 10.0 mi Calm Calm - N/A   Clear
11:55 PM 50.0 °F 48.2 °F 94% 30.04 in 10.0 mi Calm Calm - N/A   Clear